Terminal Aerodrome Forecast
Issued by NWS Wilmington, OH

Current Version | Previous Version | Graphics & Text | Print | Product List | Glossary On
Versions: 1 2 3 4 5 6 7 8 9 10 11 12 13 14 15 16 17 18 19 20 21
000
FTUS41 KILN 230500
TAFILN
TAF
KILN 230531Z 2306/2406 VRB03KT P6SM OVC035
      TEMPO 2306/2308 OVC025
     FM230800 VRB03KT P6SM SCT035
      TEMPO 2309/2311 5SM BR
     FM231500 30005KT P6SM SCT250
     FM240400 VRB03KT P6SM BKN250=

USA.gov is the U.S. government's official web portal to all federal, state and local government web resources and services.